World > North America > United States > Minnesota > Walnut Grove

Hourly Walnut Grove, MN Regional Weather

Feedback E-mail the Weather

Quick WX

Walnut Grove, MN Weather Maps

°F °C°F °C
Walnut Grove Weather Map
UTC Time: 8/15/2022, 13:15
Your Time:

Walnut Grove, MN Regional Weather

Expires:202208151400;;141126
ASUS43 KMPX 151310
RWRMN 
WEATHER ROUNDUP FOR MINNESOTA
NATIONAL WEATHER SERVICE TWIN CITIES/CHANHASSEN MN
800 AM CDT MON AUG 15 2022


NOTE: "FAIR" INDICATES FEW OR NO CLOUDS BELOW 12,000 FEET WITH NO
SIGNIFICANT WEATHER AND/OR OBSTRUCTIONS TO VISIBILITY. N/A MEANS
CURRENT SKY AND/OR WEATHER CONDITIONS ARE NOT AVAILABLE.


MNZ071>073-080-081-089-090-097-098-151400-
   Southwest Minnesota   
  
CITY           SKY/WX    TMP DP  RH WIND       PRES   REMARKS
MONTEVIDEO     PTSUNNY   64  63  94 S3        30.07R                  
GRANITE FALLS  CLOUDY    65  63  92 SE8       30.09R                  
CANBY          CLOUDY    62  60  95 E5        30.06S                  
MARSHALL       CLOUDY    63  62  97 S6        30.07S                  
REDWOOD FALLS  CLOUDY    63  62  97 SE7       30.08R                  
OLIVIA         PTSUNNY   63  61  94 SE6       30.08R                  
WINDOM         CLOUDY    61  59  94 S5        30.09S                  
WORTHINGTON    CLOUDY    62  61  96 S8        30.10F                  
JACKSON        CLOUDY    61  61 100 S6        30.11S                  
TRACY          CLOUDY    63  60  89 S6        30.08S                  
SLAYTON        CLOUDY    60  60 100 SE6       30.10S FOG              
$$

SKY/WX - Weather  TMP - Temperature  DP - Dew Point  RH - Humidity
WIND - Wind Direction/Speed PRES - Barometric Pressure VSB - Visibility
WCI - Wind Chill Index E13G22 Wind - East Wind 13 mph/Gusts of 22 mph

Trending Headlines

Walnut Grove Radar Loop



Walnut Grove Quick Facts


National Two Day Weather Forecast


E-mail the Walnut Grove Weather Forecast

Voice your opinion or tell us about page issues...